Weather History for Vacaville, CA

Change the Weather History Date:

Thursday, February 27, 2014

  Actual Average Record
Temperature  
Mean Temperature 57 °F -  
Max Temperature 63 °F 64 °F 75 °F (2002)
Min Temperature 51 °F 41 °F 30 °F (1960)
Degree Days  
Heating Degree Days 8    
Growing Degree Days 7 (Base 50)    
Moisture  
Dew Point 50 °F    
Average Humidity 83    
Maximum Humidity 97    
Minimum Humidity 60    
Precipitation  
Precipitation 0.07 in - - ()
Sea Level Pressure  
Sea Level Pressure 29.80 in    
Wind  
Wind Speed 8 mph (South)    
Max Wind Speed 13 mph    
Max Gust Speed 21 mph    
Visibility 9 miles    
Events Rain    
Averages and records for this station are not official NWS values.
T = Trace of Precipitation, MM = Missing Value Source: NWS Daily Summary

Daily Weather History Graph

Daily Weather History Graph

Search for Another Location

Airport:

Trip Planner

Search our weather history database for the weather conditions in past years. The results will help you decide how hot, cold, wet, or windy it might be!

Date:

Astronomy

Feb. 27, 2014 Rise Set
Actual Time 6:42 AM PST 5:59 PM PST
Civil Twilight 6:15 AM PST 6:25 PM PST
Nautical Twilight 5:45 AM PST 6:56 PM PST
Astronomical Twilight 5:14 AM PST 7:27 PM PST
Moon 5:17 AM PST (2/27) 4:31 PM PST (2/27)
Length of Visible Light 12h 09m
Length of Day
11h 16m
Waning Crescent, 3% of the Moon is Illuminated
Feb 27
Waning Crescent
Mar 1
New
Mar 8
First Quarter
Mar 16
Full
Mar 23
Last Quarter

Hourly Weather History & Observations

Time (PST) Temp. Dew Point Humidity Pressure Visibility Wind Dir Wind Speed Gust Speed Precip Events Conditions
12:53 AM 54.0 °F 51.1 °F 90% 29.75 in 10.0 mi SSW 9.2 mph - N/A   Clear
1:53 AM 54.0 °F 52.0 °F 93% 29.79 in 10.0 mi SW 6.9 mph - N/A   Mostly Cloudy
2:30 AM 53.1 °F 51.1 °F 93% 29.79 in 10.0 mi South 9.2 mph - N/A   Mostly Cloudy
2:39 AM 53.1 °F 51.1 °F 93% 29.79 in 10.0 mi South 10.4 mph - N/A   Mostly Cloudy
2:53 AM 53.1 °F 51.1 °F 93% 29.79 in 10.0 mi South 9.2 mph - N/A   Scattered Clouds
3:53 AM 53.1 °F 50.0 °F 89% 29.79 in 10.0 mi SSW 8.1 mph - N/A   Scattered Clouds
4:18 AM 53.1 °F 50.0 °F 89% 29.80 in 10.0 mi South 9.2 mph 17.3 mph N/A   Mostly Cloudy
4:53 AM 53.1 °F 50.0 °F 89% 29.81 in 10.0 mi South 9.2 mph - N/A   Mostly Cloudy
5:39 AM 52.0 °F 50.0 °F 93% 29.83 in 9.0 mi SE 5.8 mph - N/A   Mostly Cloudy
5:46 AM 52.0 °F 50.0 °F 93% 29.83 in 10.0 mi SE 5.8 mph - N/A   Overcast
5:53 AM 52.0 °F 50.0 °F 93% 29.83 in 10.0 mi Variable 6.9 mph - N/A   Overcast
6:53 AM 52.0 °F 50.0 °F 93% 29.84 in 7.0 mi SSE 10.4 mph - 0.02 in Rain Light Rain
7:28 AM 52.0 °F 50.0 °F 93% 29.86 in 1.8 mi SSE 9.2 mph - 0.02 in Rain Rain
7:40 AM 51.1 °F 50.0 °F 96% 29.86 in 3.0 mi SSE 10.4 mph - 0.03 in Rain Light Rain
7:53 AM 52.0 °F 51.1 °F 97% 29.86 in 5.0 mi South 11.5 mph 20.7 mph 0.03 in Rain Light Rain
8:53 AM 54.0 °F 52.0 °F 93% 29.88 in 10.0 mi South 12.7 mph - 0.00 in   Mostly Cloudy
9:04 AM 54.0 °F 52.0 °F 93% 29.88 in 10.0 mi South 12.7 mph - N/A   Scattered Clouds
9:53 AM 55.0 °F 51.1 °F 86% 29.90 in 10.0 mi South 9.2 mph - N/A   Mostly Cloudy
10:53 AM 55.0 °F 51.1 °F 86% 29.90 in 9.0 mi SW 8.1 mph - 0.02 in   Overcast
11:53 AM 59.0 °F 51.1 °F 75% 29.90 in 10.0 mi SSE 11.5 mph - N/A   Scattered Clouds
12:53 PM 59.0 °F 48.9 °F 69% 29.90 in 10.0 mi South 9.2 mph - N/A   Overcast
1:53 PM 61.0 °F 48.0 °F 62% 29.88 in 10.0 mi South 5.8 mph - N/A   Mostly Cloudy
2:53 PM 62.1 °F 50.0 °F 65% 29.86 in 10.0 mi SE 8.1 mph - N/A   Mostly Cloudy
3:53 PM 63.0 °F 48.9 °F 60% 29.84 in 10.0 mi South 5.8 mph - N/A   Clear
4:53 PM 62.1 °F 48.9 °F 62% 29.81 in 10.0 mi SSE 6.9 mph - N/A   Mostly Cloudy
5:53 PM 60.1 °F 48.9 °F 67% 29.77 in 10.0 mi SE 4.6 mph - N/A   Scattered Clouds
6:53 PM 57.9 °F 48.9 °F 72% 29.73 in 10.0 mi Calm Calm - N/A   Clear
7:53 PM 55.9 °F 48.9 °F 77% 29.71 in 10.0 mi Calm Calm - N/A   Clear
8:53 PM 55.0 °F 48.0 °F 77% 29.68 in 10.0 mi Calm Calm - N/A   Clear
9:53 PM 54.0 °F 48.0 °F 80% 29.66 in 10.0 mi Calm Calm - N/A   Clear
10:53 PM 53.1 °F 48.0 °F 83% 29.63 in 10.0 mi Calm Calm - N/A   Clear
11:53 PM 54.0 °F 46.9 °F 77% 29.61 in 10.0 mi North 8.1 mph - N/A   Mostly Cloudy